Probability
0 0 0 0 0 0 0 0 0 0 0 0 0 0 0 0 0 0 0 0 1 7 32 69 93 96 89 88 94 99 100 100 100 100 99 99 99 100 99 98 98 99 100
0 0 0 0 0 0 0 0 0 0 0 0 0 0 0 0 0 0 0 0 0 3 21 57 87 97 93 91 94 97 99 99 100 100 100 100 100 100 100 99 99 99 100
0 0 0 0 0 0 0 0 0 0 0 0 0 0 0 0 0 0 0 0 0 0 9 35 70 92 97 96 95 95 96 96 97 98 100 100 100 100 100 100 100 100 100
0 0 0 0 0 0 0 0 0 0 0 0 0 0 0 0 0 0 0 0 0 0 2 15 44 76 94 98 97 96 94 91 89 90 95 98 100 100 100 100 100 100 100
0 0 0 0 0 0 0 0 0 0 0 0 0 0 0 0 0 0 0 0 0 0 0 5 20 48 78 94 97 98 97 90 81 79 86 94 98 100 100 100 100 100 99
0 0 0 0 0 0 0 0 0 0 0 0 0 0 0 0 0 0 0 0 0 0 0 1 5 20 51 81 95 99 99 94 82 76 80 88 96 99 100 100 99 99 98
0 0 0 0 0 0 0 0 0 0 0 0 0 0 0 0 0 0 0 0 0 0 0 0 0 5 23 53 78 93 99 98 91 83 82 86 93 97 99 98 96 93 92
0 0 0 0 0 0 0 0 0 0 0 0 0 0 0 0 0 0 0 0 0 0 0 0 0 0 6 20 43 69 89 97 96 91 89 88 89 94 97 95 89 83 80
0 0 0 0 0 0 0 0 0 0 0 0 0 0 0 0 0 0 0 0 0 0 0 0 0 0 1 3 13 33 62 87 98 97 94 91 88 90 93 91 82 74 71
0 0 0 0 0 0 0 0 0 0 0 0 0 0 0 0 0 0 0 0 0 0 0 0 0 0 0 0 2 10 32 68 92 98 97 94 90 88 91 87 78 72 68
0 0 0 0 0 0 0 0 0 0 0 0 0 0 0 0 0 0 0 0 0 0 0 0 0 0 0 0 0 2 13 42 78 96 98 97 94 91 91 88 81 74 68
0 0 0 0 0 0 0 0 0 0 0 0 0 0 0 0 0 0 0 0 0 0 0 0 0 0 0 0 0 0 4 20 53 81 93 96 96 95 94 92 87 78 70
0 0 0 0 0 0 0 0 0 0 0 0 0 0 0 0 0 0 0 0 0 0 0 0 0 0 0 0 0 0 1 8 26 49 70 86 94 96 95 93 90 86 80
0 0 0 0 0 0 0 0 0 0 0 0 0 0 0 0 0 0 0 0 0 0 0 0 0 0 0 0 0 0 0 3 9 19 35 56 75 86 89 88 89 91 91
0 0 0 0 0 0 0 0 0 0 0 0 0 0 0 0 0 0 0 0 0 0 0 0 0 0 0 0 0 0 0 1 3 5 10 21 37 56 67 71 78 86 89
0 0 0 0 0 0 0 0 0 0 0 0 0 0 0 0 0 0 0 0 0 0 0 0 0 0 0 0 0 0 0 0 1 1 2 3 8 20 32 40 49 62 69
0 0 0 0 0 0 0 0 0 0 0 0 0 0 0 0 0 0 0 0 0 0 0 0 0 0 0 0 0 0 0 0 0 1 1 1 0 2 6 11 18 30 38
0 0 0 0 0 0 0 0 0 0 0 0 0 0 0 0 0 0 0 0 0 0 0 0 0 0 0 0 0 0 0 0 0 0 0 0 0 0 0 0 3 10 15
0 0 0 0 0 0 0 0 0 0 0 0 0 0 0 0 0 0 0 0 0 0 0 0 0 0 0 0 0 0 0 0 0 0 0 0 0 0 0 0 0 2 4
0 0 0 0 0 0 0 0 0 0 0 0 0 0 0 0 0 0 0 0 0 0 0 0 0 0 0 0 0 0 0 0 0 0 0 0 0 0 0 0 0 0 1
0 0 0 0 0 0 0 0 0 0 0 0 0 0 0 0 0 0 0 0 0 0 0 0 0 0 0 0 0 0 0 0 0 0 0 0 0 0 0 0 0 0 0
0 0 0 0 0 0 0 0 0 0 0 0 0 0 0 0 0 0 0 0 0 0 0 0 0 0 0 0 0 0 0 0 0 0 0 0 0 0 0 0 0 0 0
0 0 0 0 0 0 0 0 0 0 0 0 0 0 0 0 0 0 0 0 0 0 0 0 0 0 0 0 0 0 0 0 0 0 0 0 0 0 0 0 0 0 0
0 0 0 0 0 0 0 0 0 0 0 0 0 0 0 0 0 0 0 0 0 0 0 0 0 0 0 0 0 0 0 0 0 0 0 0 0 0 0 0 0 0 0
0 0 0 0 0 0 0 0 0 0 0 0 0 0 0 0 0 0 0 0 0 0 0 0 0 0 0 0 0 0 0 0 0 0 0 0 0 0 0 0 0 0 0
0 0 0 0 0 0 0 0 0 0 0 0 0 0 0 0 0 0 0 0 0 0 0 0 0 0 0 0 0 0 0 0 0 0 0 0 0 0 0 0 0 0 0
Wind_Speed
9 9 8 9 10 9 10 11 11 13 14 14 13 15 15 14 13 11 9 20 23 22 21 22 24 26 27 26 25 24 24 23 22 21 20 20 19 19 19 19 19 19 19
9 9 9 8 9 10 10 10 12 12 12 12 14 15 15 14 12 13 11 14 20 22 21 21 22 24 26 26 25 24 25 25 24 22 21 20 20 19 19 19 19 19 19
10 10 9 8 9 10 11 11 11 10 12 12 13 14 13 13 14 15 14 11 11 17 20 20 20 22 24 25 24 24 24 25 24 23 22 21 21 20 20 19 19 19 19
12 10 9 8 10 9 10 10 10 11 12 12 12 11 11 12 15 15 13 12 9 9 13 18 18 21 23 24 24 23 23 24 25 25 24 23 22 21 21 20 19 19 19
13 10 8 8 11 9 9 11 11 11 13 13 13 12 11 12 14 14 14 13 11 10 8 13 16 17 21 23 23 23 23 23 25 27 27 24 23 22 21 20 19 19 19
12 10 7 9 10 9 9 10 12 12 11 12 14 14 13 13 12 10 11 10 9 10 9 9 8 9 16 20 21 22 23 23 24 27 27 26 25 23 22 21 20 20 20
12 10 9 9 9 9 10 12 12 13 11 11 12 13 12 11 10 6 6 8 8 9 8 7 6 6 6 14 17 19 22 23 24 26 27 28 27 25 23 21 20 20 20
11 11 10 9 9 9 10 11 12 10 10 10 10 11 8 7 5 8 6 6 8 9 10 9 7 6 6 5 8 14 16 21 23 25 26 28 28 27 26 23 22 22 21
10 9 10 9 9 8 8 11 10 12 12 11 8 7 7 6 12 7 5 5 7 9 9 9 9 8 7 5 6 9 14 18 21 23 25 27 28 29 27 25 23 23 21
10 10 11 9 9 9 9 10 11 10 12 11 9 7 7 8 7 9 7 5 7 9 9 10 10 10 9 5 7 11 13 16 21 22 24 26 29 30 29 26 24 23 21
8 10 11 9 10 9 9 11 11 11 10 10 10 9 9 7 7 8 13 12 10 6 7 9 8 8 9 7 5 10 15 16 19 20 21 24 28 30 30 28 26 24 22
7 10 12 8 10 9 10 10 10 11 11 12 10 9 8 7 7 7 10 14 13 10 10 8 7 7 7 6 8 11 14 16 16 17 18 19 23 27 28 27 26 26 25
9 10 11 10 9 9 10 10 11 11 11 12 11 9 8 7 7 9 10 12 14 12 8 7 5 5 7 5 6 11 12 16 16 16 16 16 18 22 24 26 27 27 27
10 11 11 11 11 11 12 11 10 11 10 11 12 12 8 7 7 8 9 10 12 11 8 7 7 6 5 5 8 12 8 13 16 15 14 14 16 18 20 23 25 26 25
11 13 13 12 12 12 12 11 9 12 11 11 11 11 9 7 7 8 8 9 9 12 11 7 5 4 6 6 9 9 9 10 13 14 13 13 14 16 18 19 21 23 24
12 13 13 13 13 13 12 11 11 11 12 12 10 10 10 7 7 8 8 8 9 10 11 6 6 9 10 10 13 11 11 14 11 12 13 12 13 14 15 18 19 20 22
13 13 14 14 14 14 12 12 12 13 13 13 11 10 11 10 8 8 8 8 8 9 12 10 8 8 9 8 8 8 10 8 6 10 12 12 12 12 13 15 17 19 20
12 13 14 14 15 15 14 14 14 13 13 12 11 10 10 9 10 8 7 8 8 8 10 12 8 7 8 7 6 8 10 8 5 7 10 11 12 12 12 13 15 17 19
13 14 14 15 15 16 16 14 13 12 10 8 8 8 9 10 10 8 8 7 6 7 7 8 8 5 5 5 5 7 11 8 5 5 8 10 11 11 12 13 14 15 17
12 13 14 15 16 17 15 12 9 6 6 6 7 8 8 10 12 11 8 9 8 8 7 6 6 5 4 4 3 4 8 6 4 2 3 5 8 11 12 13 14 15 16
14 14 15 16 17 15 12 9 7 7 7 8 8 9 10 15 20 16 11 11 10 8 7 6 6 5 3 2 2 2 6 5 3 2 2 3 4 4 6 10 12 14 15
13 14 14 16 18 15 20 21 15 10 10 10 10 10 10 11 18 21 22 21 18 13 11 8 6 6 5 4 3 3 4 4 3 2 3 2 2 3 4 5 10 14 15
12 13 14 15 17 20 24 24 24 13 11 11 10 10 11 13 13 9 15 18 17 21 20 12 9 9 7 7 6 5 4 4 2 2 3 2 2 2 2 3 12 15 16
9 10 12 14 15 20 26 23 22 12 10 11 12 11 10 12 14 14 11 10 10 12 15 11 9 9 10 9 7 6 5 5 2 1 2 3 2 3 3 3 11 16 20
7 9 10 12 14 17 24 22 19 8 9 10 12 14 14 12 24 24 15 13 12 11 16 21 20 17 18 18 13 4 3 4 2 1 2 3 3 5 5 5 10 22 26
8 9 10 10 12 13 23 23 18 8 9 9 9 12 19 21 25 25 14 13 14 13 13 14 14 15 13 13 17 8 4 2 1 2 0 3 4 5 6 6 8 11 18
Wind_Direction
348 344 340 336 332 335 336 332 331 329 331 327 325 324 321 317 310 308 308 307 308 303 293 278 255 237 227 220 210 203 201 201 200 197 193 190 189 189 189 187 185 183 184
345 343 338 333 336 337 331 328 324 326 324 322 320 320 315 310 307 308 303 302 303 303 299 287 262 239 228 222 215 207 203 201 200 199 195 192 189 188 189 189 187 185 185
345 342 336 336 339 334 330 328 323 326 321 320 317 315 311 308 307 305 301 295 294 298 297 294 272 247 233 226 219 213 208 204 201 199 196 193 189 187 187 188 187 186 186
345 341 334 338 337 336 334 329 330 327 322 318 314 311 308 307 304 299 295 291 288 288 292 292 281 258 241 231 224 218 213 208 204 201 197 194 190 187 187 186 186 186 186
344 339 332 337 337 336 334 331 331 325 321 316 312 309 308 302 295 293 293 292 286 280 277 283 281 268 250 238 230 224 218 212 209 204 199 194 190 188 187 187 185 185 186
342 336 337 337 338 336 333 330 327 324 318 316 314 310 302 291 284 284 291 296 294 292 283 275 275 270 254 241 233 229 223 218 214 209 201 195 192 189 189 188 186 186 186
339 336 341 334 336 333 328 326 327 323 322 320 315 312 298 279 275 291 306 310 315 319 306 290 272 262 259 245 235 231 228 223 218 213 205 198 193 190 190 189 188 187 186
335 340 337 332 331 328 325 327 324 323 320 323 316 313 313 308 334 314 303 312 337 335 326 319 306 289 262 248 240 234 231 229 224 218 210 203 196 191 191 190 190 189 189
330 327 328 326 326 325 322 323 319 325 319 314 310 307 314 324 325 298 299 319 334 328 332 331 330 316 290 256 243 242 234 231 229 223 216 207 200 194 191 191 191 191 191
323 326 325 322 323 321 319 319 325 316 314 313 312 297 299 302 302 309 310 318 320 321 323 328 329 324 310 278 248 241 240 233 230 227 221 212 205 199 194 191 192 191 192
317 323 322 321 321 319 316 315 315 314 311 307 306 306 300 293 281 292 301 313 317 309 315 314 311 308 310 299 271 245 236 236 231 227 224 217 210 204 198 193 192 192 191
318 318 320 319 317 315 315 314 313 310 308 304 304 300 299 300 305 301 297 305 306 309 308 299 294 294 302 310 297 270 241 232 230 224 221 218 214 209 202 195 193 192 192
323 317 319 317 315 312 312 311 311 308 305 304 303 299 296 294 297 294 293 297 298 303 299 293 287 299 302 307 310 300 255 234 226 220 215 214 213 210 205 198 194 193 194
318 314 316 313 311 312 313 309 306 304 303 302 299 298 293 290 291 290 289 293 295 296 290 287 298 278 291 319 328 327 287 246 225 213 208 208 207 207 206 203 196 193 193
319 320 315 311 310 310 308 307 302 303 301 298 295 295 291 288 288 286 282 278 283 291 295 294 292 314 335 326 328 330 316 277 231 206 199 200 204 204 204 204 200 196 192
316 315 315 313 311 310 307 305 303 302 301 297 296 294 293 287 288 284 280 277 274 278 280 284 294 307 311 308 319 323 312 300 254 210 194 192 197 201 202 201 199 197 194
317 318 317 315 313 311 310 307 304 304 302 301 299 297 296 295 292 286 281 277 272 271 277 285 284 289 292 302 311 312 305 297 268 220 196 189 191 196 199 199 196 195 193
318 318 317 316 315 314 311 306 304 303 300 299 301 307 311 312 307 298 289 280 277 272 274 282 284 283 282 289 297 301 304 297 274 227 202 191 190 192 195 197 195 193 190
321 321 321 319 318 316 312 306 302 299 302 308 318 328 331 337 337 329 321 316 304 295 285 284 285 275 272 275 290 297 295 286 271 228 201 193 190 191 195 197 195 193 190
325 326 325 324 324 321 315 312 313 322 337 344 346 345 350 359 355 348 349 351 343 333 323 306 294 277 260 250 246 269 277 277 264 221 181 174 184 191 196 197 196 194 191
337 333 333 332 331 328 328 343 9 26 17 8 360 357 4 18 12 7 10 8 359 354 348 335 321 303 281 249 226 235 261 273 262 212 157 159 167 177 187 198 197 194 190
338 338 337 337 339 341 3 31 46 31 23 16 7 360 1 15 16 11 12 15 13 10 5 356 342 330 326 327 314 265 259 255 238 209 145 138 143 162 171 183 189 186 185
339 340 340 343 345 348 23 40 43 34 24 16 8 3 8 7 21 8 5 12 10 11 13 7 351 344 336 336 324 299 272 261 235 202 134 121 107 127 125 173 176 173 169
338 339 340 346 350 356 19 38 37 26 21 15 8 3 7 1 16 20 2 3 8 5 4 4 356 349 343 338 318 287 283 288 285 355 94 114 92 84 74 104 150 149 144
336 338 342 345 349 350 12 34 37 12 15 9 9 7 10 8 13 21 10 2 5 3 0 2 3 3 360 356 355 321 268 235 201 100 39 104 106 85 64 66 110 124 126
343 344 342 345 346 346 7 29 41 21 13 7 7 3 7 16 13 19 15 4 8 2 354 352 356 357 356 355 3 360 329 276 195 140 111 110 123 109 81 48 78 102 111